Time,TemperatureF,DewpointF,PressureIn,WindDirection,WindDirectionDegrees,WindSpeedMPH,WindSpeedGustMPH,Humidity,HourlyPrecipIn,Conditions,Clouds,dailyrainin,SoftwareType,DateUTC
2013-03-08 00:00:00,38.3,27.2,30.21,NNW,328,5.0,7.0,64,0.00,,---,0.00,VWS V14.01,2013-03-08 05:00:00,
2013-03-08 00:01:00,38.3,27.2,30.21,NNW,336,4.0,7.0,64,0.00,,---,0.00,VWS V14.01,2013-03-08 05:01:00,
2013-03-08 00:06:00,38.3,27.2,30.21,NNW,340,4.0,7.0,64,0.00,,---,0.00,VWS V14.01,2013-03-08 05:06:00,
2013-03-08 00:11:00,38.4,27.3,30.21,NW,325,6.0,6.0,64,0.00,,---,0.00,VWS V14.01,2013-03-08 05:11:00,
2013-03-08 00:16:00,38.4,27.3,30.21,WNW,301,2.0,7.0,64,0.00,,---,0.00,VWS V14.01,2013-03-08 05:16:00,
2013-03-08 00:21:00,38.4,27.3,30.21,NNW,336,5.0,6.0,64,0.00,,---,0.00,VWS V14.01,2013-03-08 05:21:00,
2013-03-08 00:26:00,38.5,27.0,30.21,NNW,333,7.0,8.0,63,0.00,,---,0.00,VWS V14.01,2013-03-08 05:26:00,
2013-03-08 00:31:00,38.6,27.1,30.21,NNW,338,6.0,8.0,63,0.00,,---,0.00,VWS V14.01,2013-03-08 05:31:00,
2013-03-08 00:36:00,38.7,27.2,30.21,NNW,336,6.0,9.0,63,0.00,,---,0.00,VWS V14.01,2013-03-08 05:36:00,
2013-03-08 00:41:00,38.7,27.2,30.21,NNW,327,5.0,8.0,63,0.00,,---,0.00,VWS V14.01,2013-03-08 05:41:00,
2013-03-08 00:46:00,38.6,27.1,30.21,NNW,329,3.0,9.0,63,0.00,,---,0.00,VWS V14.01,2013-03-08 05:46:00,
2013-03-08 00:51:00,38.6,27.1,30.21,NNW,332,5.0,7.0,63,0.00,,---,0.00,VWS V14.01,2013-03-08 05:51:00,
2013-03-08 00:56:00,38.6,27.1,30.21,NW,311,5.0,7.0,63,0.00,,---,0.00,VWS V14.01,2013-03-08 05:56:00,
2013-03-08 01:01:00,38.6,27.1,30.21,NW,323,2.0,7.0,63,0.00,,---,0.00,VWS V14.01,2013-03-08 06:01:00,
2013-03-08 01:06:00,38.6,27.5,30.21,NW,310,3.0,5.0,64,0.00,,---,0.00,VWS V14.01,2013-03-08 06:06:00,
2013-03-08 01:11:00,38.4,26.9,30.21,NNW,344,7.0,7.0,63,0.00,,---,0.00,VWS V14.01,2013-03-08 06:11:00,
2013-03-08 01:16:00,38.5,27.4,30.21,West,280,7.0,8.0,64,0.00,,---,0.00,VWS V14.01,2013-03-08 06:16:00,
2013-03-08 01:21:00,38.6,26.7,30.21,NW,322,6.0,9.0,62,0.00,,---,0.00,VWS V14.01,2013-03-08 06:21:00,
2013-03-08 01:26:00,38.6,26.7,30.21,North,355,4.0,7.0,62,0.00,,---,0.00,VWS V14.01,2013-03-08 06:26:00,
2013-03-08 01:31:00,38.6,26.3,30.21,NNW,331,0.0,8.0,61,0.00,,---,0.00,VWS V14.01,2013-03-08 06:31:00,
2013-03-08 01:36:00,38.5,26.2,30.20,NNW,328,2.0,4.0,61,0.00,,---,0.00,VWS V14.01,2013-03-08 06:36:00,
2013-03-08 01:41:00,38.5,27.0,30.20,NW,315,3.0,7.0,63,0.00,,---,0.00,VWS V14.01,2013-03-08 06:41:00,
2013-03-08 01:46:00,38.4,26.5,30.20,NNW,347,1.0,6.0,62,0.00,,---,0.00,VWS V14.01,2013-03-08 06:46:00,
2013-03-08 01:51:00,38.5,26.6,30.20,NNW,333,8.0,12.0,62,0.00,,---,0.00,VWS V14.01,2013-03-08 06:51:00,
2013-03-08 01:56:00,38.6,26.7,30.20,NW,319,4.0,10.0,62,0.00,,---,0.00,VWS V14.01,2013-03-08 06:56:00,
2013-03-08 02:01:00,38.6,26.3,30.20,NW,321,7.0,13.0,61,0.00,,---,0.00,VWS V14.01,2013-03-08 07:01:00,
2013-03-08 02:06:00,38.6,26.3,30.20,NNW,331,1.0,12.0,61,0.00,,---,0.00,VWS V14.01,2013-03-08 07:06:00,
2013-03-08 02:11:00,38.6,26.3,30.20,NNW,329,2.0,8.0,61,0.00,,---,0.00,VWS V14.01,2013-03-08 07:11:00,
2013-03-08 02:16:00,38.5,26.6,30.20,NW,308,11.0,11.0,62,0.00,,---,0.00,VWS V14.01,2013-03-08 07:16:00,
2013-03-08 02:21:00,38.5,26.6,30.20,NNW,335,5.0,12.0,62,0.00,,---,0.00,VWS V14.01,2013-03-08 07:21:00,
2013-03-08 02:26:00,38.3,26.4,30.19,NW,323,4.0,12.0,62,0.00,,---,0.00,VWS V14.01,2013-03-08 07:26:00,
2013-03-08 02:31:00,38.2,26.3,30.19,NNW,346,5.0,8.0,62,0.00,,---,0.00,VWS V14.01,2013-03-08 07:31:00,
2013-03-08 02:36:00,38.0,26.1,30.19,NW,323,5.0,7.0,62,0.00,,---,0.00,VWS V14.01,2013-03-08 07:36:00,
2013-03-08 02:41:00,38.1,26.2,30.19,NNW,329,5.0,10.0,62,0.00,,---,0.00,VWS V14.01,2013-03-08 07:41:00,
2013-03-08 02:46:00,38.1,26.6,30.19,NNW,327,4.0,10.0,63,0.00,,---,0.00,VWS V14.01,2013-03-08 07:46:00,
2013-03-08 02:51:00,38.2,26.7,30.19,NNW,333,5.0,11.0,63,0.00,,---,0.00,VWS V14.01,2013-03-08 07:51:00,
2013-03-08 02:56:00,38.2,26.7,30.19,NNW,329,4.0,9.0,63,0.00,,---,0.00,VWS V14.01,2013-03-08 07:56:00,
2013-03-08 03:01:00,38.2,26.3,30.19,NNW,344,6.0,10.0,62,0.00,,---,0.00,VWS V14.01,2013-03-08 08:01:00,
2013-03-08 03:06:00,38.2,26.3,30.19,NNW,334,9.0,11.0,62,0.00,,---,0.00,VWS V14.01,2013-03-08 08:06:00,
2013-03-08 03:11:00,38.3,26.8,30.19,NNW,343,10.0,12.0,63,0.00,,---,0.00,VWS V14.01,2013-03-08 08:11:00,
2013-03-08 03:16:00,38.3,26.4,30.19,NNW,330,5.0,8.0,62,0.00,,---,0.00,VWS V14.01,2013-03-08 08:16:00,
2013-03-08 03:21:00,38.3,26.4,30.19,NW,320,4.0,10.0,62,0.00,,---,0.00,VWS V14.01,2013-03-08 08:21:00,
2013-03-08 03:26:00,38.3,26.4,30.18,NW,317,4.0,8.0,62,0.00,,---,0.00,VWS V14.01,2013-03-08 08:26:00,
2013-03-08 03:31:00,38.2,26.7,30.18,NNW,342,4.0,7.0,63,0.00,,---,0.00,VWS V14.01,2013-03-08 08:31:00,
2013-03-08 03:36:00,38.2,26.7,30.18,NNW,345,6.0,7.0,63,0.00,,---,0.00,VWS V14.01,2013-03-08 08:36:00,
2013-03-08 03:41:00,38.1,26.2,30.18,North,355,4.0,10.0,62,0.00,,---,0.00,VWS V14.01,2013-03-08 08:41:00,
2013-03-08 03:46:00,38.0,26.9,30.18,NNW,329,3.0,9.0,64,0.00,,---,0.00,VWS V14.01,2013-03-08 08:46:00,
2013-03-08 03:51:00,38.0,26.5,30.18,NNW,342,4.0,8.0,63,0.00,,---,0.00,VWS V14.01,2013-03-08 08:51:00,
2013-03-08 03:56:00,38.0,27.3,30.18,NW,325,3.0,5.0,65,0.00,,---,0.00,VWS V14.01,2013-03-08 08:56:00,
2013-03-08 04:01:00,38.0,26.5,30.18,NW,313,3.0,12.0,63,0.00,,---,0.00,VWS V14.01,2013-03-08 09:01:00,
2013-03-08 04:06:00,38.2,26.7,30.18,NNW,346,2.0,8.0,63,0.00,,---,0.00,VWS V14.01,2013-03-08 09:06:00,
2013-03-08 04:11:00,38.2,26.7,30.18,NNW,329,5.0,7.0,63,0.00,,---,0.00,VWS V14.01,2013-03-08 09:11:00,
2013-03-08 04:16:00,38.2,27.1,30.18,NNW,334,7.0,9.0,64,0.00,,---,0.00,VWS V14.01,2013-03-08 09:16:00,
2013-03-08 04:21:00,38.2,27.1,30.18,NW,320,2.0,8.0,64,0.00,,---,0.00,VWS V14.01,2013-03-08 09:21:00,
2013-03-08 04:26:00,38.3,26.8,30.18,NNW,329,3.0,6.0,63,0.00,,---,0.00,VWS V14.01,2013-03-08 09:26:00,
2013-03-08 04:31:00,38.2,27.1,30.19,NNW,333,5.0,7.0,64,0.00,,---,0.00,VWS V14.01,2013-03-08 09:31:00,
2013-03-08 04:36:00,38.2,27.1,30.18,NNW,332,4.0,6.0,64,0.00,,---,0.00,VWS V14.01,2013-03-08 09:36:00,
2013-03-08 04:41:00,38.2,27.1,30.18,NW,315,4.0,6.0,64,0.00,,---,0.00,VWS V14.01,2013-03-08 09:41:00,
2013-03-08 04:46:00,38.2,27.1,30.18,NNW,339,3.0,8.0,64,0.00,,---,0.00,VWS V14.01,2013-03-08 09:46:00,
2013-03-08 04:51:00,38.2,27.1,30.18,NW,315,4.0,7.0,64,0.00,,---,0.00,VWS V14.01,2013-03-08 09:51:00,
2013-03-08 04:56:00,38.2,27.5,30.18,NNW,335,3.0,6.0,65,0.00,,---,0.00,VWS V14.01,2013-03-08 09:56:00,
2013-03-08 05:01:00,38.2,27.1,30.18,NNW,335,6.0,7.0,64,0.00,,---,0.00,VWS V14.01,2013-03-08 10:01:00,
2013-03-08 05:06:00,38.2,27.1,30.19,NW,321,4.0,8.0,64,0.00,,---,0.00,VWS V14.01,2013-03-08 10:06:00,
2013-03-08 05:11:00,38.2,27.1,30.19,NNW,329,3.0,10.0,64,0.00,,---,0.00,VWS V14.01,2013-03-08 10:11:00,
2013-03-08 05:16:00,38.1,27.0,30.19,NNW,348,7.0,10.0,64,0.00,,---,0.00,VWS V14.01,2013-03-08 10:16:00,
2013-03-08 05:21:00,38.1,27.0,30.19,NNW,333,4.0,7.0,64,0.00,,---,0.00,VWS V14.01,2013-03-08 10:21:00,
2013-03-08 05:26:00,38.0,26.9,30.19,NW,317,5.0,11.0,64,0.00,,---,0.00,VWS V14.01,2013-03-08 10:26:00,
2013-03-08 05:31:00,38.0,26.9,30.19,NNW,331,3.0,10.0,64,0.00,,---,0.00,VWS V14.01,2013-03-08 10:31:00,
2013-03-08 05:36:00,38.0,26.9,30.20,NNW,339,4.0,10.0,64,0.00,,---,0.00,VWS V14.01,2013-03-08 10:36:00,
2013-03-08 05:41:00,37.8,27.1,30.20,NNW,346,6.0,7.0,65,0.00,,---,0.00,VWS V14.01,2013-03-08 10:41:00,
2013-03-08 05:46:00,37.8,27.1,30.20,North,355,4.0,9.0,65,0.00,,---,0.00,VWS V14.01,2013-03-08 10:46:00,
2013-03-08 05:51:00,37.6,26.5,30.20,NW,322,7.0,7.0,64,0.00,,---,0.00,VWS V14.01,2013-03-08 10:51:00,
2013-03-08 05:55:00,37.7,26.6,30.21,NNW,333,6.0,11.0,64,0.00,,---,0.00,VWS V14.01,2013-03-08 10:55:00,
2013-03-08 06:00:00,37.8,26.7,30.21,North,355,8.0,9.0,64,0.00,,---,0.00,VWS V14.01,2013-03-08 11:00:00,
2013-03-08 06:05:00,37.8,26.0,30.21,NNW,342,3.0,12.0,62,0.00,,---,0.00,VWS V14.01,2013-03-08 11:05:00,
2013-03-08 06:10:00,37.9,25.7,30.21,NNW,331,6.0,13.0,61,0.00,,---,0.00,VWS V14.01,2013-03-08 11:10:00,
2013-03-08 06:15:00,37.9,26.1,30.21,NNW,345,5.0,13.0,62,0.00,,---,0.00,VWS V14.01,2013-03-08 11:15:00,
2013-03-08 06:20:00,37.6,25.8,30.21,NNW,338,7.0,14.0,62,0.00,,---,0.00,VWS V14.01,2013-03-08 11:20:00,
2013-03-08 06:25:00,37.7,25.1,30.21,NNW,338,6.0,10.0,60,0.00,,---,0.00,VWS V14.01,2013-03-08 11:25:00,
2013-03-08 06:30:00,37.7,25.1,30.22,NNW,331,10.0,12.0,60,0.00,,---,0.00,VWS V14.01,2013-03-08 11:30:00,
2013-03-08 06:35:00,37.9,24.9,30.22,NNW,335,6.0,13.0,59,0.00,,---,0.00,VWS V14.01,2013-03-08 11:35:00,
2013-03-08 06:40:00,37.8,24.4,30.22,NNW,328,8.0,11.0,58,0.00,,---,0.00,VWS V14.01,2013-03-08 11:40:00,
2013-03-08 06:45:00,37.7,24.3,30.22,North,349,4.0,13.0,58,0.00,,---,0.00,VWS V14.01,2013-03-08 11:45:00,
2013-03-08 06:50:00,37.6,24.2,30.22,North,355,6.0,10.0,58,0.00,,---,0.00,VWS V14.01,2013-03-08 11:50:00,
2013-03-08 06:55:00,37.5,24.1,30.22,NW,320,5.0,13.0,58,0.00,,---,0.00,VWS V14.01,2013-03-08 11:55:00,
2013-03-08 07:00:00,37.7,23.9,30.22,NNW,347,11.0,20.0,57,0.00,,---,0.00,VWS V14.01,2013-03-08 12:00:00,
2013-03-08 07:05:00,37.9,23.6,30.22,North,350,12.0,18.0,56,0.00,,---,0.00,VWS V14.01,2013-03-08 12:05:00,
2013-03-08 07:10:00,37.8,23.5,30.22,NNW,343,11.0,17.0,56,0.00,,---,0.00,VWS V14.01,2013-03-08 12:10:00,
2013-03-08 07:15:00,37.8,24.0,30.22,NNW,329,10.0,13.0,57,0.00,,---,0.00,VWS V14.01,2013-03-08 12:15:00,
2013-03-08 07:20:00,37.5,24.1,30.23,NNW,339,11.0,11.0,58,0.00,,---,0.00,VWS V14.01,2013-03-08 12:20:00,
2013-03-08 07:25:00,37.4,23.6,30.22,NNW,341,7.0,12.0,57,0.00,,---,0.00,VWS V14.01,2013-03-08 12:25:00,
2013-03-08 07:30:00,37.4,23.6,30.23,NW,315,6.0,13.0,57,0.00,,---,0.00,VWS V14.01,2013-03-08 12:30:00,
2013-03-08 07:35:00,37.4,23.1,30.22,NNW,330,6.0,14.0,56,0.00,,---,0.00,VWS V14.01,2013-03-08 12:35:00,
2013-03-08 07:40:00,37.4,23.1,30.23,North,355,9.0,14.0,56,0.00,,---,0.00,VWS V14.01,2013-03-08 12:40:00,
2013-03-08 07:45:00,37.4,22.7,30.24,NNW,334,3.0,9.0,55,0.00,,---,0.00,VWS V14.01,2013-03-08 12:45:00,
2013-03-08 07:50:00,37.4,22.7,30.24,NNW,348,3.0,10.0,55,0.00,,---,0.00,VWS V14.01,2013-03-08 12:50:00,
2013-03-08 07:55:00,37.5,22.4,30.24,NNW,337,8.0,12.0,54,0.00,,---,0.00,VWS V14.01,2013-03-08 12:55:00,
2013-03-08 08:00:00,37.7,22.6,30.25,NNW,345,4.0,12.0,54,0.00,,---,0.00,VWS V14.01,2013-03-08 13:00:00,
2013-03-08 08:05:00,37.7,22.6,30.24,NNW,346,7.0,9.0,54,0.00,,---,0.00,VWS V14.01,2013-03-08 13:05:00,
2013-03-08 08:10:00,37.9,22.3,30.25,NNW,332,6.0,17.0,53,0.00,,---,0.00,VWS V14.01,2013-03-08 13:10:00,
2013-03-08 08:15:00,38.1,22.5,30.25,NNW,332,8.0,13.0,53,0.00,,---,0.00,VWS V14.01,2013-03-08 13:15:00,
2013-03-08 08:20:00,38.2,22.6,30.25,NW,319,12.0,15.0,53,0.00,,---,0.00,VWS V14.01,2013-03-08 13:20:00,
2013-03-08 08:25:00,38.2,23.0,30.25,North,10,5.0,13.0,54,0.00,,---,0.00,VWS V14.01,2013-03-08 13:25:00,
2013-03-08 08:30:00,38.3,23.6,30.25,NNW,344,10.0,11.0,55,0.00,,---,0.00,VWS V14.01,2013-03-08 13:30:00,
2013-03-08 08:35:00,38.4,23.2,30.25,NW,319,6.0,10.0,54,0.00,,---,0.00,VWS V14.01,2013-03-08 13:35:00,
2013-03-08 08:40:00,38.6,23.4,30.25,North,355,7.0,11.0,54,0.00,,---,0.00,VWS V14.01,2013-03-08 13:40:00,
2013-03-08 08:45:00,39.0,23.3,30.26,North,355,7.0,11.0,53,0.00,,---,0.00,VWS V14.01,2013-03-08 13:45:00,
2013-03-08 08:50:00,39.1,23.9,30.26,NW,317,8.0,13.0,54,0.00,,---,0.00,VWS V14.01,2013-03-08 13:50:00,
2013-03-08 08:55:00,39.2,23.1,30.26,North,350,7.0,11.0,52,0.00,,---,0.00,VWS V14.01,2013-03-08 13:55:00,
2013-03-08 09:00:00,39.4,22.8,30.25,NNW,338,11.0,14.0,51,0.00,,---,0.00,VWS V14.01,2013-03-08 14:00:00,
2013-03-08 09:05:00,39.4,23.2,30.26,North,355,11.0,16.0,52,0.00,,---,0.00,VWS V14.01,2013-03-08 14:05:00,
2013-03-08 09:10:00,39.3,22.7,30.26,North,355,11.0,17.0,51,0.00,,---,0.00,VWS V14.01,2013-03-08 14:10:00,
2013-03-08 09:15:00,39.5,23.4,30.26,North,360,9.0,14.0,52,0.00,,---,0.00,VWS V14.01,2013-03-08 14:15:00,
2013-03-08 09:20:00,39.5,22.9,30.26,North,351,6.0,11.0,51,0.00,,---,0.00,VWS V14.01,2013-03-08 14:20:00,
2013-03-08 09:25:00,39.5,22.4,30.27,North,355,10.0,16.0,50,0.00,,---,0.00,VWS V14.01,2013-03-08 14:25:00,
2013-03-08 09:30:00,39.5,23.4,30.27,North,10,10.0,11.0,52,0.00,,---,0.00,VWS V14.01,2013-03-08 14:30:00,
2013-03-08 09:35:00,39.5,22.4,30.27,NNE,19,10.0,14.0,50,0.00,,---,0.00,VWS V14.01,2013-03-08 14:35:00,
2013-03-08 09:40:00,39.7,23.1,30.27,North,5,10.0,14.0,51,0.00,,---,0.00,VWS V14.01,2013-03-08 14:40:00,
2013-03-08 09:45:00,39.7,23.1,30.27,North,355,7.0,14.0,51,0.00,,---,0.00,VWS V14.01,2013-03-08 14:45:00,
2013-03-08 09:50:00,40.2,24.0,30.27,North,355,7.0,9.0,52,0.00,,---,0.00,VWS V14.01,2013-03-08 14:50:00,
2013-03-08 09:55:00,40.5,23.8,30.27,NNW,329,4.0,15.0,51,0.00,,---,0.00,VWS V14.01,2013-03-08 14:55:00,
2013-03-08 10:00:00,40.9,23.2,30.27,NNW,342,6.0,13.0,49,0.00,,---,0.00,VWS V14.01,2013-03-08 15:00:00,
2013-03-08 10:05:00,40.8,23.1,30.27,NNW,334,2.0,12.0,49,0.00,,---,0.00,VWS V14.01,2013-03-08 15:05:00,
2013-03-08 10:10:00,40.7,23.0,30.28,NNW,327,10.0,16.0,49,0.00,,---,0.00,VWS V14.01,2013-03-08 15:10:00,
2013-03-08 10:15:00,40.8,22.6,30.27,NNW,338,8.0,15.0,48,0.00,,---,0.00,VWS V14.01,2013-03-08 15:15:00,
2013-03-08 10:20:00,41.1,23.4,30.27,North,360,9.0,13.0,49,0.00,,---,0.00,VWS V14.01,2013-03-08 15:20:00,
2013-03-08 10:25:00,41.3,23.6,30.27,North,360,6.0,13.0,49,0.00,,---,0.00,VWS V14.01,2013-03-08 15:25:00,
2013-03-08 10:30:00,41.3,23.1,30.26,NNW,333,6.0,14.0,48,0.00,,---,0.00,VWS V14.01,2013-03-08 15:30:00,
2013-03-08 10:35:00,41.6,22.9,30.26,NNW,347,7.0,11.0,47,0.00,,---,0.00,VWS V14.01,2013-03-08 15:35:00,
2013-03-08 10:40:00,41.9,23.2,30.25,NNW,329,8.0,14.0,47,0.00,,---,0.00,VWS V14.01,2013-03-08 15:40:00,
2013-03-08 10:45:00,42.3,23.0,30.26,North,351,5.0,13.0,46,0.00,,---,0.00,VWS V14.01,2013-03-08 15:45:00,
2013-03-08 10:50:00,42.6,22.8,30.25,NW,304,5.0,12.0,45,0.00,,---,0.00,VWS V14.01,2013-03-08 15:50:00,
2013-03-08 10:55:00,42.9,23.0,30.26,NNW,328,11.0,13.0,45,0.00,,---,0.00,VWS V14.01,2013-03-08 15:55:00,
2013-03-08 11:00:00,42.8,23.0,30.26,NW,319,8.0,15.0,45,0.00,,---,0.00,VWS V14.01,2013-03-08 16:00:00,
2013-03-08 11:05:00,42.6,22.2,30.25,NW,317,7.0,14.0,44,0.00,,---,0.00,VWS V14.01,2013-03-08 16:05:00,
2013-03-08 11:10:00,42.8,23.0,30.26,NW,311,5.0,13.0,45,0.00,,---,0.00,VWS V14.01,2013-03-08 16:10:00,
2013-03-08 11:15:00,43.0,23.1,30.25,North,9,7.0,12.0,45,0.00,,---,0.00,VWS V14.01,2013-03-08 16:15:00,
2013-03-08 11:20:00,43.4,23.0,30.25,NNW,337,5.0,12.0,44,0.00,,---,0.00,VWS V14.01,2013-03-08 16:20:00,
2013-03-08 11:25:00,44.3,24.8,30.25,NNW,337,6.0,8.0,46,0.00,,---,0.00,VWS V14.01,2013-03-08 16:25:00,
2013-03-08 11:30:00,44.7,24.1,30.24,NNW,330,9.0,10.0,44,0.00,,---,0.00,VWS V14.01,2013-03-08 16:30:00,
2013-03-08 11:35:00,44.4,23.3,30.24,NNE,25,14.0,15.0,43,0.00,,---,0.00,VWS V14.01,2013-03-08 16:35:00,
2013-03-08 11:40:00,44.4,23.9,30.24,NE,36,10.0,15.0,44,0.00,,---,0.00,VWS V14.01,2013-03-08 16:40:00,
2013-03-08 11:45:00,44.0,22.4,30.22,NNW,345,7.0,15.0,42,0.00,,---,0.00,VWS V14.01,2013-03-08 16:45:00,
2013-03-08 11:50:00,44.6,23.5,30.23,North,5,4.0,14.0,43,0.00,,---,0.00,VWS V14.01,2013-03-08 16:50:00,
2013-03-08 11:55:00,44.9,23.8,30.22,NW,325,4.0,13.0,43,0.00,,---,0.00,VWS V14.01,2013-03-08 16:55:00,
2013-03-08 12:00:00,45.5,24.9,30.23,NNE,15,1.0,10.0,44,0.00,,---,0.00,VWS V14.01,2013-03-08 17:00:00,
2013-03-08 12:05:00,45.8,24.6,30.23,West,263,3.0,11.0,43,0.00,,---,0.00,VWS V14.01,2013-03-08 17:05:00,
2013-03-08 12:10:00,46.0,24.2,30.23,NW,317,7.0,14.0,42,0.00,,---,0.00,VWS V14.01,2013-03-08 17:10:00,
2013-03-08 12:15:00,45.9,24.1,30.23,NNW,333,4.0,11.0,42,0.00,,---,0.00,VWS V14.01,2013-03-08 17:15:00,
2013-03-08 12:20:00,46.1,24.3,30.23,NNW,347,4.0,11.0,42,0.00,,---,0.00,VWS V14.01,2013-03-08 17:20:00,
2013-03-08 12:25:00,46.2,25.0,30.22,NNE,13,6.0,13.0,43,0.00,,---,0.00,VWS V14.01,2013-03-08 17:25:00,
2013-03-08 12:30:00,46.8,24.9,30.22,NW,319,7.0,12.0,42,0.00,,---,0.00,VWS V14.01,2013-03-08 17:30:00,
2013-03-08 12:35:00,46.3,25.0,30.22,NW,314,8.0,14.0,43,0.00,,---,0.00,VWS V14.01,2013-03-08 17:35:00,
2013-03-08 12:40:00,46.0,23.6,30.22,West,275,4.0,12.0,41,0.00,,---,0.00,VWS V14.01,2013-03-08 17:40:00,
2013-03-08 12:45:00,46.3,24.5,30.22,NW,309,3.0,7.0,42,0.00,,---,0.00,VWS V14.01,2013-03-08 17:45:00,
2013-03-08 12:50:00,46.6,24.2,30.21,NNW,339,3.0,15.0,41,0.00,,---,0.00,VWS V14.01,2013-03-08 17:50:00,
2013-03-08 12:55:00,46.6,24.2,30.21,NNW,336,6.0,16.0,41,0.00,,---,0.00,VWS V14.01,2013-03-08 17:55:00,
2013-03-08 13:00:00,46.8,25.5,30.21,NNW,329,6.0,11.0,43,0.00,,---,0.00,VWS V14.01,2013-03-08 18:00:00,
2013-03-08 13:05:00,47.2,25.3,30.21,NW,323,5.0,11.0,42,0.00,,---,0.00,VWS V14.01,2013-03-08 18:05:00,
2013-03-08 13:10:00,47.4,24.9,30.20,NW,316,6.0,9.0,41,0.00,,---,0.00,VWS V14.01,2013-03-08 18:10:00,
2013-03-08 13:15:00,47.8,24.7,30.20,North,5,8.0,14.0,40,0.00,,---,0.00,VWS V14.01,2013-03-08 18:15:00,
2013-03-08 13:20:00,48.0,24.2,30.19,North,351,5.0,11.0,39,0.00,,---,0.00,VWS V14.01,2013-03-08 18:20:00,
2013-03-08 13:25:00,47.7,24.0,30.19,NNW,336,5.0,14.0,39,0.00,,---,0.00,VWS V14.01,2013-03-08 18:25:00,
2013-03-08 13:30:00,48.0,24.2,30.20,NNW,329,11.0,11.0,39,0.00,,---,0.00,VWS V14.01,2013-03-08 18:30:00,
2013-03-08 13:35:00,47.7,24.6,30.19,NW,316,1.0,14.0,40,0.00,,---,0.00,VWS V14.01,2013-03-08 18:35:00,
2013-03-08 13:40:00,48.0,24.9,30.20,NW,321,14.0,14.0,40,0.00,,---,0.00,VWS V14.01,2013-03-08 18:40:00,
2013-03-08 13:45:00,47.7,25.2,30.19,NW,309,4.0,14.0,41,0.00,,---,0.00,VWS V14.01,2013-03-08 18:45:00,
2013-03-08 13:50:00,48.1,24.3,30.19,WNW,294,4.0,10.0,39,0.00,,---,0.00,VWS V14.01,2013-03-08 18:50:00,
2013-03-08 13:55:00,47.9,25.4,30.19,WNW,294,6.0,9.0,41,0.00,,---,0.00,VWS V14.01,2013-03-08 18:55:00,
2013-03-08 14:00:00,48.2,25.0,30.19,WNW,284,6.0,8.0,40,0.00,,---,0.00,VWS V14.01,2013-03-08 19:00:00,
2013-03-08 14:05:00,48.3,25.1,30.19,WSW,245,4.0,12.0,40,0.00,,---,0.00,VWS V14.01,2013-03-08 19:05:00,
2013-03-08 14:10:00,48.5,25.3,30.19,WNW,296,7.0,11.0,40,0.00,,---,0.00,VWS V14.01,2013-03-08 19:10:00,
2013-03-08 14:15:00,48.5,24.7,30.19,NW,305,4.0,9.0,39,0.00,,---,0.00,VWS V14.01,2013-03-08 19:15:00,
2013-03-08 14:20:00,48.7,25.5,30.19,WNW,301,4.0,9.0,40,0.00,,---,0.00,VWS V14.01,2013-03-08 19:20:00,
2013-03-08 14:25:00,49.1,25.2,30.19,NW,309,4.0,11.0,39,0.00,,---,0.00,VWS V14.01,2013-03-08 19:25:00,
2013-03-08 14:30:00,49.0,25.1,30.19,West,277,8.0,12.0,39,0.00,,---,0.00,VWS V14.01,2013-03-08 19:30:00,
2013-03-08 14:35:00,48.9,25.0,30.19,NW,313,4.0,13.0,39,0.00,,---,0.00,VWS V14.01,2013-03-08 19:35:00,
2013-03-08 14:40:00,48.9,25.0,30.18,NNW,344,9.0,12.0,39,0.00,,---,0.00,VWS V14.01,2013-03-08 19:40:00,
2013-03-08 14:45:00,49.0,25.8,30.18,NW,317,5.0,11.0,40,0.00,,---,0.00,VWS V14.01,2013-03-08 19:45:00,
2013-03-08 14:50:00,49.0,25.1,30.19,NW,325,2.0,9.0,39,0.00,,---,0.00,VWS V14.01,2013-03-08 19:50:00,
2013-03-08 14:55:00,48.8,25.6,30.19,NNW,332,4.0,6.0,40,0.00,,---,0.00,VWS V14.01,2013-03-08 19:55:00,
2013-03-08 15:00:00,49.0,25.1,30.19,NW,317,6.0,9.0,39,0.00,,---,0.00,VWS V14.01,2013-03-08 20:00:00,
2013-03-08 15:05:00,49.1,25.8,30.19,WNW,297,6.0,12.0,40,0.00,,---,0.00,VWS V14.01,2013-03-08 20:05:00,
2013-03-08 15:10:00,49.0,25.8,30.19,WSW,258,2.0,12.0,40,0.00,,---,0.00,VWS V14.01,2013-03-08 20:10:00,
2013-03-08 15:15:00,49.2,26.5,30.19,NNW,342,4.0,6.0,41,0.00,,---,0.00,VWS V14.01,2013-03-08 20:15:00,
2013-03-08 15:20:00,49.7,25.8,30.19,NNW,331,6.0,12.0,39,0.00,,---,0.00,VWS V14.01,2013-03-08 20:20:00,
2013-03-08 15:25:00,49.6,25.0,30.19,NW,324,13.0,16.0,38,0.00,,---,0.00,VWS V14.01,2013-03-08 20:25:00,
2013-03-08 15:30:00,49.5,25.0,30.19,NW,322,6.0,11.0,38,0.00,,---,0.00,VWS V14.01,2013-03-08 20:30:00,
2013-03-08 15:35:00,49.5,25.6,30.19,WNW,288,5.0,13.0,39,0.00,,---,0.00,VWS V14.01,2013-03-08 20:35:00,
2013-03-08 15:40:00,49.6,26.3,30.19,NW,306,5.0,7.0,40,0.00,,---,0.00,VWS V14.01,2013-03-08 20:40:00,
2013-03-08 15:45:00,49.6,25.0,30.19,NW,323,5.0,11.0,38,0.00,,---,0.00,VWS V14.01,2013-03-08 20:45:00,
2013-03-08 15:50:00,49.6,26.3,30.19,NNW,335,4.0,7.0,40,0.00,,---,0.00,VWS V14.01,2013-03-08 20:50:00,
2013-03-08 15:55:00,50.0,26.0,30.20,NNW,337,7.0,10.0,39,0.00,,---,0.00,VWS V14.01,2013-03-08 20:55:00,
2013-03-08 16:00:00,49.7,25.8,30.19,NNE,28,4.0,14.0,39,0.00,,---,0.00,VWS V14.01,2013-03-08 21:00:00,
2013-03-08 16:05:00,49.9,26.0,30.19,NW,313,6.0,12.0,39,0.00,,---,0.00,VWS V14.01,2013-03-08 21:05:00,
2013-03-08 16:10:00,49.8,25.2,30.19,ENE,64,9.0,12.0,38,0.00,,---,0.00,VWS V14.01,2013-03-08 21:10:00,
2013-03-08 16:15:00,49.5,25.6,30.19,NNW,331,6.0,15.0,39,0.00,,---,0.00,VWS V14.01,2013-03-08 21:15:00,
2013-03-08 16:20:00,49.4,25.5,30.20,NW,321,8.0,13.0,39,0.00,,---,0.00,VWS V14.01,2013-03-08 21:20:00,
2013-03-08 16:25:00,49.5,25.6,30.20,NNW,342,3.0,9.0,39,0.00,,---,0.00,VWS V14.01,2013-03-08 21:25:00,
2013-03-08 16:30:00,49.4,25.5,30.20,North,11,4.0,10.0,39,0.00,,---,0.00,VWS V14.01,2013-03-08 21:30:00,
2013-03-08 16:35:00,49.3,26.0,30.20,NW,306,7.0,15.0,40,0.00,,---,0.00,VWS V14.01,2013-03-08 21:35:00,
2013-03-08 16:40:00,49.1,25.8,30.20,NNW,331,6.0,12.0,40,0.00,,---,0.00,VWS V14.01,2013-03-08 21:40:00,
2013-03-08 16:45:00,49.0,25.8,30.20,WNW,295,1.0,9.0,40,0.00,,---,0.00,VWS V14.01,2013-03-08 21:45:00,
2013-03-08 16:50:00,49.1,26.4,30.21,NNW,343,4.0,7.0,41,0.00,,---,0.00,VWS V14.01,2013-03-08 21:50:00,
2013-03-08 16:55:00,49.1,26.4,30.21,NNW,338,5.0,8.0,41,0.00,,---,0.00,VWS V14.01,2013-03-08 21:55:00,
2013-03-08 17:00:00,49.1,25.8,30.20,NW,318,2.0,11.0,40,0.00,,---,0.00,VWS V14.01,2013-03-08 22:00:00,
2013-03-08 17:05:00,48.9,25.7,30.21,NW,307,4.0,16.0,40,0.00,,---,0.00,VWS V14.01,2013-03-08 22:05:00,
2013-03-08 17:10:00,48.9,26.2,30.21,NNW,344,6.0,10.0,41,0.00,,---,0.00,VWS V14.01,2013-03-08 22:10:00,
2013-03-08 17:15:00,48.8,26.2,30.21,WNW,302,11.0,13.0,41,0.00,,---,0.00,VWS V14.01,2013-03-08 22:15:00,
2013-03-08 17:20:00,48.7,26.1,30.21,North,355,5.0,11.0,41,0.00,,---,0.00,VWS V14.01,2013-03-08 22:20:00,
2013-03-08 17:25:00,48.6,26.0,30.21,NNW,338,2.0,5.0,41,0.00,,---,0.00,VWS V14.01,2013-03-08 22:25:00,
2013-03-08 17:30:00,48.5,26.5,30.22,NW,326,3.0,6.0,42,0.00,,---,0.00,VWS V14.01,2013-03-08 22:30:00,
2013-03-08 17:35:00,48.3,26.3,30.22,NNW,336,7.0,8.0,42,0.00,,---,0.00,VWS V14.01,2013-03-08 22:35:00,
2013-03-08 17:40:00,48.3,26.3,30.22,North,350,2.0,10.0,42,0.00,,---,0.00,VWS V14.01,2013-03-08 22:40:00,
2013-03-08 17:45:00,48.1,26.7,30.23,NNW,335,3.0,4.0,43,0.00,,---,0.00,VWS V14.01,2013-03-08 22:45:00,
2013-03-08 17:50:00,47.7,26.3,30.23,NNW,338,4.0,8.0,43,0.00,,---,0.00,VWS V14.01,2013-03-08 22:50:00,
2013-03-08 17:55:00,47.6,26.2,30.23,NW,321,3.0,10.0,43,0.00,,---,0.00,VWS V14.01,2013-03-08 22:55:00,
2013-03-08 18:00:00,47.3,26.5,30.23,NNW,338,6.0,10.0,44,0.00,,---,0.00,VWS V14.01,2013-03-08 23:00:00,
2013-03-08 18:05:00,47.2,25.9,30.23,North,350,5.0,12.0,43,0.00,,---,0.00,VWS V14.01,2013-03-08 23:05:00,
2013-03-08 18:10:00,46.9,26.1,30.23,North,5,3.0,8.0,44,0.00,,---,0.00,VWS V14.01,2013-03-08 23:10:00,
2013-03-08 18:15:00,46.7,26.5,30.23,NNW,338,6.0,8.0,45,0.00,,---,0.00,VWS V14.01,2013-03-08 23:15:00,
2013-03-08 18:20:00,46.5,26.9,30.23,NNW,338,4.0,6.0,46,0.00,,---,0.00,VWS V14.01,2013-03-08 23:20:00,
2013-03-08 18:25:00,46.3,26.1,30.24,NW,304,1.0,8.0,45,0.00,,---,0.00,VWS V14.01,2013-03-08 23:25:00,
2013-03-08 18:30:00,46.1,26.5,30.24,NNW,327,5.0,8.0,46,0.00,,---,0.00,VWS V14.01,2013-03-08 23:30:00,
2013-03-08 18:35:00,46.0,26.4,30.24,NW,319,4.0,10.0,46,0.00,,---,0.00,VWS V14.01,2013-03-08 23:35:00,
2013-03-08 18:40:00,45.8,26.7,30.24,NNW,338,4.0,8.0,47,0.00,,---,0.00,VWS V14.01,2013-03-08 23:40:00,
2013-03-08 18:44:00,45.6,26.0,30.25,NNW,331,3.0,8.0,46,0.00,,---,0.00,VWS V14.01,2013-03-08 23:44:00,
2013-03-08 18:49:00,45.4,26.4,30.25,NNW,333,2.0,8.0,47,0.00,,---,0.00,VWS V14.01,2013-03-08 23:49:00,
2013-03-08 18:54:00,45.3,26.3,30.25,NNW,329,3.0,7.0,47,0.00,,---,0.00,VWS V14.01,2013-03-08 23:54:00,
2013-03-08 18:59:00,45.1,26.6,30.25,NW,316,4.0,5.0,48,0.00,,---,0.00,VWS V14.01,2013-03-08 23:59:00,
2013-03-08 19:04:00,44.7,26.7,30.25,WNW,298,3.0,4.0,49,0.00,,---,0.00,VWS V14.01,2013-03-09 00:04:00,
2013-03-08 19:09:00,44.4,26.5,30.25,NNW,335,5.0,7.0,49,0.00,,---,0.00,VWS V14.01,2013-03-09 00:09:00,
2013-03-08 19:14:00,44.3,26.9,30.25,NNW,334,2.0,6.0,50,0.00,,---,0.00,VWS V14.01,2013-03-09 00:14:00,
2013-03-08 19:19:00,44.1,26.7,30.26,NNW,344,7.0,8.0,50,0.00,,---,0.00,VWS V14.01,2013-03-09 00:19:00,
2013-03-08 19:24:00,44.1,27.1,30.26,NNW,335,6.0,8.0,51,0.00,,---,0.00,VWS V14.01,2013-03-09 00:24:00,
2013-03-08 19:29:00,43.8,27.3,30.26,NNW,335,5.0,7.0,52,0.00,,---,0.00,VWS V14.01,2013-03-09 00:29:00,
2013-03-08 19:34:00,43.7,27.2,30.25,NNW,341,6.0,10.0,52,0.00,,---,0.00,VWS V14.01,2013-03-09 00:34:00,
2013-03-08 19:39:00,43.7,27.2,30.25,NNW,336,5.0,8.0,52,0.00,,---,0.00,VWS V14.01,2013-03-09 00:39:00,
2013-03-08 19:44:00,43.2,26.8,30.25,NNW,343,2.0,7.0,52,0.00,,---,0.00,VWS V14.01,2013-03-09 00:44:00,
2013-03-08 19:49:00,43.0,27.0,30.26,NNW,342,4.0,5.0,53,0.00,,---,0.00,VWS V14.01,2013-03-09 00:49:00,
2013-03-08 19:54:00,42.9,27.0,30.25,NNW,348,3.0,8.0,53,0.00,,---,0.00,VWS V14.01,2013-03-09 00:54:00,
2013-03-08 19:59:00,42.8,26.9,30.25,NW,324,2.0,8.0,53,0.00,,---,0.00,VWS V14.01,2013-03-09 00:59:00,
2013-03-08 20:04:00,42.7,27.2,30.26,NW,326,4.0,6.0,54,0.00,,---,0.00,VWS V14.01,2013-03-09 01:04:00,
2013-03-08 20:09:00,42.5,27.0,30.26,NNW,327,4.0,6.0,54,0.00,,---,0.00,VWS V14.01,2013-03-09 01:09:00,
2013-03-08 20:14:00,42.7,27.2,30.26,NNW,327,3.0,5.0,54,0.00,,---,0.00,VWS V14.01,2013-03-09 01:14:00,
2013-03-08 20:19:00,42.4,27.0,30.26,NNW,327,2.0,3.0,54,0.00,,---,0.00,VWS V14.01,2013-03-09 01:19:00,
2013-03-08 20:24:00,42.2,26.8,30.26,NW,324,2.0,7.0,54,0.00,,---,0.00,VWS V14.01,2013-03-09 01:24:00,
2013-03-08 20:29:00,42.2,27.2,30.26,NW,313,3.0,6.0,55,0.00,,---,0.00,VWS V14.01,2013-03-09 01:29:00,
2013-03-08 20:34:00,42.0,27.0,30.27,NNE,21,2.0,7.0,55,0.00,,---,0.00,VWS V14.01,2013-03-09 01:34:00,
2013-03-08 20:39:00,42.0,27.5,30.27,NNE,19,3.0,3.0,56,0.00,,---,0.00,VWS V14.01,2013-03-09 01:39:00,
2013-03-08 20:44:00,41.8,27.3,30.27,NNW,337,4.0,6.0,56,0.00,,---,0.00,VWS V14.01,2013-03-09 01:44:00,
2013-03-08 20:49:00,41.5,27.4,30.27,NNW,327,8.0,8.0,57,0.00,,---,0.00,VWS V14.01,2013-03-09 01:49:00,
2013-03-08 20:54:00,41.6,27.1,30.27,NNW,343,6.0,8.0,56,0.00,,---,0.00,VWS V14.01,2013-03-09 01:54:00,
2013-03-08 20:59:00,41.4,27.8,30.27,NNW,339,5.0,7.0,58,0.00,,---,0.00,VWS V14.01,2013-03-09 01:59:00,
2013-03-08 21:04:00,40.9,28.1,30.27,NNW,338,6.0,9.0,60,0.00,,---,0.00,VWS V14.01,2013-03-09 02:04:00,
2013-03-08 21:09:00,40.0,28.0,30.26,NNW,329,7.0,9.0,62,0.00,,---,0.00,VWS V14.01,2013-03-09 02:09:00,
2013-03-08 21:14:00,40.1,27.4,30.27,NNW,329,3.0,8.0,60,0.00,,---,0.00,VWS V14.01,2013-03-09 02:14:00,
2013-03-08 21:19:00,40.3,27.1,30.27,NNW,329,3.0,4.0,59,0.00,,---,0.00,VWS V14.01,2013-03-09 02:19:00,
2013-03-08 21:24:00,40.5,26.9,30.27,NE,36,2.0,6.0,58,0.00,,---,0.00,VWS V14.01,2013-03-09 02:24:00,
2013-03-08 21:29:00,40.6,27.0,30.27,WNW,296,5.0,5.0,58,0.00,,---,0.00,VWS V14.01,2013-03-09 02:29:00,
2013-03-08 21:34:00,40.7,27.1,30.27,NW,325,1.0,8.0,58,0.00,,---,0.00,VWS V14.01,2013-03-09 02:34:00,
2013-03-08 21:39:00,40.6,27.0,30.28,NNW,329,1.0,4.0,58,0.00,,---,0.00,VWS V14.01,2013-03-09 02:39:00,
2013-03-08 21:44:00,40.5,26.9,30.28,ENE,77,0.0,5.0,58,0.00,,---,0.00,VWS V14.01,2013-03-09 02:44:00,
2013-03-08 21:49:00,40.4,27.2,30.28,ENE,77,1.0,2.0,59,0.00,,---,0.00,VWS V14.01,2013-03-09 02:49:00,
2013-03-08 21:54:00,40.2,27.0,30.29,NW,315,2.0,6.0,59,0.00,,---,0.00,VWS V14.01,2013-03-09 02:54:00,
2013-03-08 21:59:00,40.0,26.8,30.29,NNW,341,0.0,3.0,59,0.00,,---,0.00,VWS V14.01,2013-03-09 02:59:00,
2013-03-08 22:04:00,40.1,26.9,30.29,NW,312,1.0,7.0,59,0.00,,---,0.00,VWS V14.01,2013-03-09 03:04:00,
2013-03-08 22:09:00,40.0,26.8,30.29,NW,312,3.0,4.0,59,0.00,,---,0.00,VWS V14.01,2013-03-09 03:09:00,
2013-03-08 22:14:00,39.8,27.1,30.30,NNW,328,3.0,6.0,60,0.00,,---,0.00,VWS V14.01,2013-03-09 03:14:00,
2013-03-08 22:19:00,39.7,27.0,30.30,NNW,328,2.0,4.0,60,0.00,,---,0.00,VWS V14.01,2013-03-09 03:19:00,
2013-03-08 22:24:00,39.6,26.9,30.31,NW,317,2.0,3.0,60,0.00,,---,0.00,VWS V14.01,2013-03-09 03:24:00,
2013-03-08 22:29:00,39.5,26.8,30.31,NW,318,3.0,5.0,60,0.00,,---,0.00,VWS V14.01,2013-03-09 03:29:00,
2013-03-08 22:34:00,39.5,26.8,30.30,NNW,348,4.0,6.0,60,0.00,,---,0.00,VWS V14.01,2013-03-09 03:34:00,
2013-03-08 22:39:00,39.5,26.8,30.30,NNW,342,6.0,9.0,60,0.00,,---,0.00,VWS V14.01,2013-03-09 03:39:00,
2013-03-08 22:44:00,39.6,26.9,30.30,NNW,338,5.0,7.0,60,0.00,,---,0.00,VWS V14.01,2013-03-09 03:44:00,
2013-03-08 22:49:00,39.2,26.9,30.30,NNW,331,7.0,11.0,61,0.00,,---,0.00,VWS V14.01,2013-03-09 03:49:00,
2013-03-08 22:54:00,39.2,26.9,30.30,NNW,338,5.0,10.0,61,0.00,,---,0.00,VWS V14.01,2013-03-09 03:54:00,
2013-03-08 22:59:00,39.0,26.7,30.31,NNW,344,5.0,6.0,61,0.00,,---,0.00,VWS V14.01,2013-03-09 03:59:00,
2013-03-08 23:04:00,39.0,26.7,30.31,NNW,343,4.0,5.0,61,0.00,,---,0.00,VWS V14.01,2013-03-09 04:04:00,
2013-03-08 23:09:00,39.1,26.4,30.31,NNW,347,2.0,6.0,60,0.00,,---,0.00,VWS V14.01,2013-03-09 04:09:00,
2013-03-08 23:14:00,39.0,26.7,30.30,NW,325,5.0,7.0,61,0.00,,---,0.00,VWS V14.01,2013-03-09 04:14:00,
2013-03-08 23:19:00,38.9,26.6,30.30,NNW,331,5.0,7.0,61,0.00,,---,0.00,VWS V14.01,2013-03-09 04:19:00,
2013-03-08 23:24:00,39.0,26.7,30.31,NW,325,4.0,8.0,61,0.00,,---,0.00,VWS V14.01,2013-03-09 04:24:00,
2013-03-08 23:29:00,39.2,26.5,30.30,NNW,336,3.0,7.0,60,0.00,,---,0.00,VWS V14.01,2013-03-09 04:29:00,
2013-03-08 23:34:00,39.1,26.4,30.30,NNW,338,4.0,6.0,60,0.00,,---,0.00,VWS V14.01,2013-03-09 04:34:00,
2013-03-08 23:39:00,39.1,26.4,30.30,NNW,331,2.0,6.0,60,0.00,,---,0.00,VWS V14.01,2013-03-09 04:39:00,
2013-03-08 23:44:00,38.9,26.6,30.30,NNW,330,3.0,6.0,61,0.00,,---,0.00,VWS V14.01,2013-03-09 04:44:00,
2013-03-08 23:49:00,38.7,26.4,30.30,NW,315,3.0,4.0,61,0.00,,---,0.00,VWS V14.01,2013-03-09 04:49:00,
2013-03-08 23:54:00,38.7,26.4,30.30,NW,326,2.0,5.0,61,0.00,,---,0.00,VWS V14.01,2013-03-09 04:54:00,
2013-03-08 23:59:00,38.5,26.2,30.30,NW,326,2.0,5.0,61,0.00,,---,0.00,VWS V14.01,2013-03-09 04:59:00,